Wind_Speed
44 43 40 37 35 33 33 35 35 34 32 28 24 24 27 26 26 26 25 23 22 20 19 19 19 19 19 19 20 20 19 20 21 24 25 27 28 27 26 23 23 24
43 40 38 36 36 35 35 37 36 35 34 29 25 26 28 27 27 27 26 24 22 21 21 21 21 21 20 20 20 19 20 22 24 26 27 29 29 28 26 24 23 24
44 41 38 35 36 37 37 39 39 40 39 36 33 31 31 30 28 26 26 25 24 23 23 24 24 23 22 22 23 24 25 26 27 27 29 30 29 27 26 25 24 25
46 43 38 32 32 36 39 40 41 43 42 40 37 34 34 34 30 27 26 26 25 25 25 26 26 26 26 27 28 29 30 30 28 27 29 31 30 29 28 27 27 30
47 45 38 33 34 38 40 41 42 42 42 40 35 33 34 37 35 30 28 26 26 26 27 28 28 28 30 31 31 31 32 31 29 26 28 31 31 31 30 29 31 35
45 44 40 39 41 42 42 43 43 41 40 39 37 36 37 40 40 37 33 30 30 30 31 31 31 32 32 32 32 33 34 32 29 27 28 30 32 32 30 32 35 37
42 43 43 44 45 45 44 44 44 42 41 40 40 39 40 41 43 43 40 39 37 36 35 34 34 34 34 35 36 37 37 34 31 30 30 31 32 32 33 36 38 38
42 43 44 47 48 48 47 46 44 43 42 41 39 39 41 43 46 46 45 44 42 39 37 35 35 36 37 39 40 40 39 35 33 32 32 33 33 34 36 39 40 38
43 44 45 48 50 50 50 49 46 44 43 41 40 40 42 45 47 47 46 43 40 38 37 37 38 40 42 43 42 41 39 36 34 34 35 35 36 37 39 41 40 38
43 45 46 47 49 50 51 50 48 46 44 43 42 41 42 44 44 43 43 42 41 41 41 41 43 44 44 43 42 41 38 36 36 37 38 38 38 40 42 41 39 37
45 45 46 47 48 49 50 51 50 49 47 46 45 44 44 43 42 41 41 42 43 43 42 42 42 42 42 42 41 39 38 37 38 39 39 40 42 44 44 42 40 37
45 44 43 45 47 49 50 50 50 50 49 48 47 46 45 44 44 43 43 43 43 42 41 40 40 39 39 39 38 37 37 38 40 41 43 45 47 47 45 42 40 37
46 44 42 42 43 45 48 48 49 49 49 49 49 47 46 46 45 45 45 43 42 41 40 39 39 39 38 39 39 40 41 43 45 47 48 49 49 47 45 43 40 37
48 47 45 42 41 41 43 45 47 48 48 49 50 49 49 49 49 49 48 47 46 46 45 44 45 45 44 44 45 47 49 51 52 52 51 50 48 47 46 44 42 40
46 45 42 40 40 41 42 43 44 46 46 47 47 48 49 50 51 50 49 48 48 49 49 49 50 51 50 50 52 54 55 56 55 53 50 49 49 48 48 46 45 43
45 42 40 40 43 45 46 46 46 46 46 46 45 45 46 47 49 49 49 49 50 51 51 52 53 54 55 55 55 56 56 55 53 50 49 50 50 50 49 48 47 46
47 45 44 47 50 50 50 49 49 49 49 49 49 48 48 49 50 50 50 51 51 52 53 53 54 55 55 55 54 53 52 51 50 50 51 51 50 50 50 51 50 50
51 50 51 53 54 54 53 52 52 53 53 54 53 52 52 52 52 53 53 53 53 53 54 54 55 55 54 52 51 50 50 50 51 51 50 49 49 50 52 54 55 54
53 54 54 54 54 55 55 55 56 57 58 58 56 54 53 53 53 53 54 54 54 54 55 56 56 56 54 51 50 50 51 52 52 52 52 52 52 54 56 57 57 54
55 56 56 55 56 56 56 58 59 60 61 60 57 54 53 52 52 53 53 53 53 53 52 53 52 52 51 51 51 52 53 53 54 54 55 55 56 55 55 56 57 55
54 56 56 56 56 56 56 57 58 58 59 58 55 53 54 54 54 54 54 53 51 49 49 50 50 51 51 51 52 54 55 56 57 57 57 56 55 54 53 54 57 59
53 54 54 55 56 56 56 56 56 56 57 57 56 55 54 53 52 51 51 50 49 48 48 49 50 51 52 53 54 55 56 57 57 57 56 55 54 54 53 54 56 58
55 55 56 57 58 58 58 58 58 58 58 58 57 56 55 53 50 49 48 48 48 47 46 47 48 49 51 52 53 54 55 56 56 57 57 58 58 58 58 58 58 59
59 59 60 61 62 62 61 62 62 61 59 58 56 55 54 53 52 51 51 50 49 48 46 47 48 49 51 52 53 54 54 55 56 57 59 60 60 61 61 61 62 63
58 59 59 60 60 60 60 60 60 60 59 58 58 57 57 57 56 56 56 55 53 50 49 49 50 52 53 54 56 57 57 58 59 60 61 61 61 63 64 65 66 68
56 56 56 57 57 56 57 57 57 58 59 60 61 61 61 61 60 60 59 57 55 53 53 53 53 54 55 57 58 60 62 64 65 66 68 69 70 71 73 74 75 76
Wind_Direction
229 226 227 230 233 235 233 232 236 242 247 251 257 264 268 270 271 270 273 276 273 267 261 262 267 267 264 263 263 265 269 273 275 274 271 267 268 270 270 273 274 273
227 225 226 229 233 236 232 230 236 242 243 245 252 259 263 267 271 270 270 270 266 262 261 265 269 267 264 262 262 266 274 281 284 279 270 267 267 267 269 273 274 276
224 224 225 230 236 238 233 229 233 239 242 246 252 255 257 262 266 266 265 263 261 260 263 266 266 264 262 263 267 273 279 287 291 284 271 266 266 266 270 274 277 284
223 223 223 231 238 237 231 229 234 240 245 250 254 254 253 255 259 263 262 260 261 262 264 265 265 264 266 270 275 279 282 288 293 286 273 266 264 267 271 272 279 293
226 225 223 227 232 233 232 234 239 244 247 249 250 250 249 251 256 261 262 258 261 264 265 265 265 266 270 273 276 279 284 290 292 286 276 269 267 270 271 272 283 296
229 229 226 226 231 236 237 239 241 242 243 243 244 245 247 249 254 260 263 261 264 268 269 268 268 269 272 273 275 279 285 289 288 283 279 274 272 272 271 276 287 296
230 230 227 228 234 239 240 241 242 242 242 244 246 249 252 252 254 258 263 266 270 273 273 272 271 271 272 274 277 282 286 288 286 282 279 275 273 273 274 281 291 295
228 228 228 231 236 240 242 244 245 246 247 249 252 254 254 253 254 257 262 268 271 274 274 272 270 271 273 277 280 283 285 286 283 279 276 274 273 273 277 286 292 293
228 229 231 235 238 240 243 245 248 250 252 253 254 254 252 253 256 260 263 267 269 269 269 268 269 272 276 279 282 284 285 285 281 277 274 273 272 274 281 289 292 291
228 230 234 238 241 243 244 246 247 249 251 252 253 252 251 253 258 262 264 267 267 268 269 271 273 277 279 282 283 284 284 281 277 274 273 271 272 278 286 290 290 289
230 233 237 241 244 245 247 248 248 249 249 250 251 252 253 255 258 261 263 266 268 271 273 275 277 280 282 282 282 281 278 275 273 272 271 272 276 283 288 289 288 287
232 236 240 242 245 246 248 249 250 251 251 251 252 253 255 257 259 261 263 266 269 270 271 273 275 277 278 276 274 273 272 272 272 272 273 276 281 284 286 287 286 285
234 237 241 244 246 248 249 250 250 251 252 252 252 254 256 259 260 262 264 265 266 266 266 267 268 269 270 269 268 269 271 273 274 276 277 280 282 284 285 285 285 283
235 236 239 244 248 250 250 250 249 249 250 251 253 256 259 261 262 263 265 265 264 264 263 262 263 264 264 265 266 269 272 275 277 278 279 280 281 282 284 284 284 284
233 235 238 243 247 247 246 245 246 249 251 254 256 259 262 263 264 265 266 265 265 265 264 264 265 266 266 267 268 271 274 277 279 279 279 279 281 282 283 284 285 285
230 233 234 236 238 239 241 244 248 251 253 254 257 260 262 263 263 263 264 263 262 263 264 265 266 267 269 271 273 275 277 278 278 278 278 280 281 282 282 283 285 285
234 233 231 233 236 240 243 246 249 252 253 254 256 258 260 260 261 261 262 262 262 263 264 265 267 270 273 276 277 278 278 277 277 278 279 280 281 281 281 283 285 286
240 240 240 240 241 242 246 249 251 254 256 257 258 259 260 261 262 263 264 265 266 267 268 270 273 275 277 278 278 277 276 276 277 278 279 279 278 278 279 282 285 286
242 242 244 246 247 248 250 253 255 258 259 259 260 262 262 263 264 266 267 269 270 271 273 275 276 277 278 278 277 276 276 277 278 278 278 278 278 278 280 283 285 287
244 244 245 247 251 253 254 256 257 259 260 261 262 263 264 264 264 265 267 269 271 272 273 274 274 275 276 277 277 277 278 278 279 279 280 281 281 282 283 283 284 285
246 247 248 249 251 252 253 255 256 257 260 262 263 263 264 265 264 264 265 266 267 267 267 268 270 272 274 275 275 276 277 278 279 281 282 282 282 282 282 281 281 282
244 246 247 247 247 248 250 251 252 254 256 260 261 261 262 263 263 263 264 264 265 265 264 265 266 268 270 271 272 274 276 278 280 281 281 281 280 279 279 280 279 279
239 239 241 242 243 244 246 248 250 252 255 258 259 260 260 259 260 263 266 268 270 270 269 267 268 269 271 273 275 276 278 279 280 280 280 280 279 279 279 279 278 277
234 235 237 239 241 243 245 247 250 252 254 255 256 259 262 262 263 265 269 271 272 271 269 267 266 266 268 270 271 273 274 276 276 277 278 278 278 279 279 278 276 276
232 234 235 238 240 243 245 247 250 252 253 255 256 258 261 264 267 269 271 273 272 270 269 267 267 266 265 266 266 267 268 269 269 270 272 271 272 273 273 273 273 273
234 235 237 239 242 245 247 249 252 255 256 258 259 260 262 264 266 268 270 270 269 268 268 268 269 269 268 268 268 268 268 269 268 269 269 269 269 270 271 271 271 272
Height
10662 10665 10667 10668 10669 10671 10670 10669 10670 10671 10672 10673 10673 10674 10675 10675 10676 10677 10678 10679 10680 10682 10683 10684 10685 10686 10687 10687 10687 10687 10687 10687 10687 10687 10687 10687 10687 10687 10686 10686 10686 10684
10658 10661 10662 10663 10664 10666 10666 10666 10667 10667 10667 10668 10669 10670 10671 10672 10673 10674 10675 10676 10677 10678 10679 10680 10681 10682 10683 10683 10683 10683 10684 10684 10684 10684 10683 10683 10683 10683 10683 10683 10683 10682
10655 10657 10658 10658 10659 10660 10661 10662 10662 10662 10662 10663 10665 10666 10668 10669 10669 10670 10671 10672 10673 10674 10675 10676 10677 10678 10678 10679 10679 10680 10680 10680 10680 10680 10680 10679 10679 10679 10679 10679 10679 10678
10649 10651 10653 10654 10655 10655 10656 10657 10657 10657 10658 10659 10661 10662 10663 10664 10665 10666 10667 10668 10668 10669 10671 10672 10672 10673 10674 10674 10675 10675 10676 10676 10676 10676 10676 10675 10675 10676 10676 10675 10674 10673
10644 10646 10650 10651 10651 10650 10651 10652 10653 10654 10655 10656 10657 10658 10659 10660 10661 10662 10663 10664 10664 10665 10666 10667 10668 10669 10669 10669 10670 10670 10671 10671 10671 10671 10671 10671 10671 10671 10671 10671 10670 10669
10640 10644 10647 10646 10645 10645 10646 10647 10648 10649 10650 10651 10653 10653 10654 10655 10656 10658 10659 10659 10660 10661 10662 10662 10663 10664 10664 10665 10665 10665 10665 10665 10666 10666 10666 10667 10666 10666 10667 10666 10666 10665
10637 10640 10642 10641 10640 10640 10641 10642 10643 10645 10646 10647 10648 10649 10650 10651 10652 10653 10654 10654 10656 10656 10657 10658 10658 10658 10659 10660 10660 10660 10660 10660 10660 10661 10661 10662 10662 10662 10662 10662 10661 10660
10634 10636 10636 10635 10635 10635 10636 10638 10639 10640 10641 10642 10644 10645 10646 10646 10647 10648 10649 10650 10651 10652 10652 10653 10653 10654 10654 10654 10654 10654 10655 10655 10655 10656 10656 10656 10657 10657 10657 10656 10656 10655
10630 10631 10631 10630 10630 10631 10632 10633 10635 10635 10636 10638 10639 10640 10641 10642 10642 10643 10644 10645 10646 10647 10647 10648 10648 10649 10649 10649 10649 10649 10649 10649 10650 10650 10651 10651 10651 10652 10652 10652 10651 10649
10626 10626 10626 10626 10627 10628 10628 10629 10630 10631 10632 10633 10634 10635 10636 10637 10637 10638 10638 10639 10640 10641 10642 10643 10643 10643 10643 10643 10643 10643 10643 10644 10644 10645 10645 10645 10646 10647 10647 10647 10646 10644
10622 10622 10623 10623 10623 10623 10623 10624 10625 10626 10628 10629 10630 10630 10631 10632 10632 10633 10633 10633 10633 10634 10636 10637 10637 10637 10637 10637 10637 10637 10638 10638 10639 10639 10639 10640 10640 10641 10641 10641 10640 10640
10618 10618 10619 10619 10618 10618 10618 10619 10620 10621 10622 10623 10624 10625 10625 10626 10627 10628 10628 10628 10628 10628 10629 10631 10631 10632 10632 10632 10632 10632 10632 10633 10633 10633 10633 10634 10634 10635 10635 10635 10635 10634
10612 10613 10614 10613 10613 10612 10612 10613 10615 10616 10616 10617 10618 10619 10620 10621 10622 10623 10623 10623 10623 10623 10623 10625 10626 10626 10627 10627 10627 10627 10627 10628 10628 10627 10627 10627 10627 10628 10629 10629 10629 10629
10607 10607 10608 10607 10606 10606 10606 10607 10609 10610 10611 10612 10613 10615 10615 10616 10617 10617 10618 10618 10618 10617 10617 10618 10619 10620 10621 10621 10621 10621 10622 10622 10622 10621 10620 10620 10620 10621 10621 10622 10623 10623
10602 10601 10602 10602 10600 10600 10601 10602 10604 10605 10606 10607 10609 10609 10610 10610 10611 10612 10612 10612 10612 10611 10612 10612 10612 10613 10614 10615 10615 10615 10615 10615 10615 10615 10614 10613 10613 10613 10614 10615 10616 10617
10596 10596 10597 10595 10594 10595 10597 10598 10599 10600 10601 10602 10603 10604 10604 10605 10605 10606 10607 10607 10606 10606 10606 10607 10606 10607 10608 10609 10609 10609 10609 10608 10608 10608 10607 10607 10606 10606 10607 10607 10608 10609
10590 10592 10591 10589 10589 10590 10592 10593 10594 10595 10595 10596 10597 10598 10599 10599 10599 10600 10601 10601 10601 10601 10601 10601 10601 10601 10601 10602 10602 10602 10601 10601 10601 10601 10601 10600 10599 10599 10599 10599 10600 10601
10584 10587 10585 10584 10585 10586 10587 10588 10588 10588 10588 10589 10591 10592 10593 10593 10593 10594 10594 10595 10595 10595 10595 10595 10595 10594 10594 10594 10594 10594 10594 10594 10594 10594 10594 10594 10593 10592 10592 10592 10592 10593
10577 10578 10578 10579 10580 10581 10582 10582 10582 10581 10581 10582 10585 10587 10587 10588 10588 10587 10587 10587 10588 10588 10588 10588 10587 10587 10588 10588 10588 10588 10588 10588 10588 10588 10588 10588 10587 10587 10585 10584 10584 10585
10570 10572 10573 10575 10575 10575 10576 10575 10575 10575 10574 10576 10580 10582 10582 10583 10583 10582 10581 10581 10581 10581 10581 10580 10580 10580 10581 10582 10582 10581 10581 10581 10581 10581 10581 10581 10580 10579 10578 10577 10576 10575
10565 10566 10568 10569 10569 10569 10569 10569 10569 10570 10569 10570 10574 10576 10575 10576 10576 10576 10576 10575 10575 10576 10575 10575 10575 10575 10575 10576 10575 10575 10574 10574 10574 10574 10573 10573 10573 10572 10571 10570 10569 10568
10560 10561 10562 10562 10562 10562 10562 10563 10563 10564 10564 10566 10568 10569 10569 10569 10570 10570 10570 10570 10570 10570 10571 10570 10570 10570 10570 10570 10570 10569 10569 10568 10568 10567 10567 10566 10566 10566 10566 10565 10564 10563
10554 10554 10555 10555 10555 10555 10557 10557 10557 10558 10560 10561 10561 10562 10562 10563 10564 10564 10564 10564 10564 10564 10565 10565 10565 10565 10565 10564 10564 10563 10563 10562 10561 10560 10560 10559 10559 10559 10559 10558 10558 10558
10546 10547 10548 10548 10548 10550 10552 10551 10551 10553 10554 10555 10555 10555 10555 10556 10557 10557 10558 10558 10558 10558 10559 10559 10559 10559 10559 10559 10558 10558 10557 10556 10556 10555 10554 10553 10553 10552 10552 10552 10551 10550
10540 10541 10542 10543 10543 10544 10546 10546 10547 10547 10548 10548 10549 10549 10549 10549 10550 10550 10550 10551 10552 10552 10552 10552 10552 10552 10552 10552 10552 10551 10551 10550 10550 10550 10549 10548 10548 10547 10546 10546 10545 10543
10535 10536 10537 10537 10537 10538 10540 10540 10541 10541 10541 10541 10541 10542 10542 10542 10543 10544 10544 10544 10545 10545 10545 10544 10545 10545 10545 10545 10544 10544 10543 10542 10542 10542 10541 10540 10540 10539 10538 10537 10537 10536